Stations météo

Publicité
Cap Cepet, France (7661): Température de l'air & dewpoint: 19.06.2017 19:00:00 - 25.06.2017 19:00:00 (CEST)Cap Cepet, France (7661): Vitesse du vent & gusts: 19.06.2017 19:00:00 - 25.06.2017 19:00:00 (CEST)Cap Cepet, France (7661): Direction du vent: 19.06.2017 19:00:00 - 25.06.2017 19:00:00 (CEST)Cap Cepet, France (7661): reduced air pressure: 19.06.2017 19:00:00 - 25.06.2017 19:00:00 (CEST)Cap Cepet, France (7661): visibility: 19.06.2017 19:00:00 - 25.06.2017 19:00:00 (CEST)Cap Cepet, France (7661): Quantités de précipitations: 19.06.2017 19:00:00 - 25.06.2017 19:00:00 (CEST)
Date & Time tt [°C] td [°C] ff [km/h] ff [knt] fx [km/h] fx [knt] dd ppp [hPa] vv [km] rr [mm]
25.06.2017 19:00:00 26,8 15,5 49 26 83 45 W 1010,6 - 0,0
25.06.2017 18:00:00 27,8 15,1 45 24 78 42 W 1011,1 - 0,0
25.06.2017 17:00:00 27,7 15,7 49 26 72 39 W 1011,5 25 0,0
25.06.2017 16:00:00 28,1 16,7 48 26 75 40 W 1012,1 - 0,0
25.06.2017 15:00:00 27,8 16,7 52 28 79 43 W 1012,3 - 0,0
25.06.2017 14:00:00 28,7 15,9 48 26 74 40 W 1012,7 - 0,0
25.06.2017 13:00:00 29,0 15,5 45 24 63 34 W 1012,8 - 0,0
25.06.2017 12:00:00 27,7 16,9 36 19 58 31 W 1013,1 - 0,0
25.06.2017 11:00:00 26,0 18,2 32 17 42 23 W 1013,1 - 0,0
25.06.2017 10:00:00 24,1 19,6 25 13 48 26 W 1013,5 - 0,0
25.06.2017 09:00:00 22,5 20,4 18 10 32 17 WSW 1014,2 - 0,2
25.06.2017 08:00:00 24,1 19,2 8 5 39 21 W 1013,0 18 0,0
25.06.2017 07:00:00 22,5 19,7 29 16 40 22 W 1013,5 - 0,0
25.06.2017 06:00:00 21,5 20,0 11 6 18 10 W 1014,1 - 0,0
25.06.2017 05:00:00 22,3 20,9 4 2 16 8 W 1013,7 20 0,0
25.06.2017 04:00:00 21,7 20,5 10 5 14 7 WSW 1014,1 - 0,0
25.06.2017 03:00:00 22,3 21,3 6 3 14 7 W 1014,8 - 0,0
25.06.2017 02:00:00 22,5 21,1 10 5 24 13 W 1015,0 - 0,0
25.06.2017 01:00:00 23,0 21,1 15 8 28 15 W 1015,6 - 0,0
25.06.2017 00:00:00 23,0 20,9 22 12 34 18 W 1015,7 - 0,0
24.06.2017 23:00:00 23,0 20,7 27 15 44 24 W 1016,1 - 0,0
24.06.2017 22:00:00 23,4 20,1 31 17 51 28 W 1015,7 - 0,0
24.06.2017 21:00:00 24,2 19,1 35 19 54 29 W 1015,0 - 0,0
24.06.2017 20:00:00 25,9 18,6 34 18 55 30 W 1014,8 18 0,0
24.06.2017 19:00:00 27,3 18,3 42 23 59 32 W 1014,4 - 0,0
24.06.2017 18:00:00 29,5 17,3 27 15 48 26 W 1014,7 - 0,0
24.06.2017 17:00:00 30,6 18,3 23 12 37 20 W 1015,1 15 0,0
24.06.2017 16:00:00 29,2 21,2 16 9 27 15 SSW 1015,5 - 0,0
24.06.2017 15:00:00 27,4 22,1 15 8 24 13 SSW 1015,9 - 0,0
24.06.2017 14:00:00 27,5 21,5 14 8 23 12 S 1016,2 10 0,0
24.06.2017 13:00:00 28,0 22,2 14 8 27 14 SSE 1016,2 - 0,0
24.06.2017 12:00:00 26,7 22,1 13 7 25 13 SE 1016,5 - 0,0
24.06.2017 11:00:00 27,0 22,2 18 10 26 14 SE 1016,7 15 0,0
24.06.2017 10:00:00 25,8 21,9 16 9 28 15 ESE 1016,9 - 0,0
24.06.2017 09:00:00 25,8 21,9 9 5 21 11 ENE 1016,8 - 0,0
24.06.2017 08:00:00 23,1 21,7 12 7 23 13 ENE 1016,7 - 0,0
24.06.2017 07:00:00 22,0 21,0 16 9 24 13 ENE 1016,7 - 0,0
24.06.2017 06:00:00 22,0 21,2 4 2 12 7 ENE 1016,6 - 0,0
24.06.2017 05:00:00 22,2 21,2 11 6 18 10 NW 1016,4 15 0,0
24.06.2017 04:00:00 22,5 21,1 14 7 23 12 W 1016,4 - 0,0
24.06.2017 03:00:00 23,0 21,1 15 8 39 21 W 1016,7 - 0,0
24.06.2017 02:00:00 23,2 21,1 29 16 39 21 W 1016,8 - 0,0
24.06.2017 01:00:00 23,6 20,7 31 17 52 28 W 1017,0 - 0,0
24.06.2017 00:00:00 24,2 19,9 38 21 56 30 W 1017,1 - 0,0
23.06.2017 23:00:00 24,6 19,2 31 17 46 25 W 1017,1 - 0,0
23.06.2017 22:00:00 24,8 19,8 33 18 54 29 W 1017,0 - 0,0
23.06.2017 21:00:00 25,1 20,4 27 15 56 30 W 1016,9 - 0,0
23.06.2017 20:00:00 26,0 20,8 38 21 59 32 W 1016,3 - 0,0
23.06.2017 19:00:00 26,0 21,2 38 20 55 30 W 1016,3 - 0,0
23.06.2017 18:00:00 30,3 20,5 24 13 38 20 W 1016,2 - 0,0
23.06.2017 17:00:00 27,9 22,6 19 10 26 14 SSW 1016,9 10 0,0
23.06.2017 16:00:00 28,8 22,8 17 9 26 14 SW 1017,2 - 0,0
23.06.2017 15:00:00 28,4 22,2 13 7 24 13 SSW 1017,4 - 0,0
23.06.2017 14:00:00 27,9 21,7 13 7 19 10 SW 1017,8 - 0,0
23.06.2017 13:00:00 27,5 22,0 11 6 22 12 S 1017,9 - 0,0
23.06.2017 12:00:00 27,5 22,0 14 7 22 12 SSW 1018,1 - 0,0
23.06.2017 11:00:00 26,0 21,4 16 9 26 14 SSW 1018,0 - 0,0
23.06.2017 10:00:00 25,8 21,9 11 6 21 11 SSW 1018,2 - 0,0
23.06.2017 09:00:00 25,0 21,7 11 6 23 12 W 1018,3 - 0,0
23.06.2017 08:00:00 23,6 21,7 14 8 21 11 W 1018,2 - 0,0
23.06.2017 07:00:00 22,7 21,7 11 6 24 13 W 1017,9 - 0,0
23.06.2017 06:00:00 22,0 21,3 16 9 26 14 WSW 1017,8 - 0,0
23.06.2017 05:00:00 22,1 21,4 19 10 28 15 W 1017,6 - 0,0
23.06.2017 04:00:00 22,3 21,5 17 9 30 16 WSW 1017,7 - 0,0
23.06.2017 03:00:00 22,4 21,4 20 11 30 16 W 1017,7 - 0,0
23.06.2017 02:00:00 22,4 21,2 21 11 29 16 W 1018,0 - 0,0
23.06.2017 01:00:00 22,7 21,3 21 11 36 19 W 1018,5 - 0,0
23.06.2017 00:00:00 22,9 21,4 29 15 37 20 W 1018,5 - 0,0
22.06.2017 23:00:00 23,0 21,3 24 13 36 20 W 1018,2 - 0,0
22.06.2017 22:00:00 23,1 21,0 24 13 35 19 W 1018,0 - 0,0
22.06.2017 21:00:00 23,6 21,1 21 11 36 20 W 1017,9 - 0,0
22.06.2017 20:00:00 24,7 21,0 26 14 37 20 W 1017,8 - 0,0
22.06.2017 19:00:00 26,6 20,9 24 13 37 20 W 1017,6 - 0,0
22.06.2017 18:00:00 27,4 20,7 17 9 32 17 SW 1017,9 - 0,0
22.06.2017 17:00:00 27,5 20,6 19 10 32 17 SW 1018,1 20 0,0
22.06.2017 16:00:00 27,7 20,3 22 12 34 18 SSW 1018,4 - -
22.06.2017 15:00:00 27,4 20,7 22 12 32 17 SSW 1018,4 - 0,0
22.06.2017 14:00:00 27,9 20,5 18 10 29 16 SSW 1018,6 - 0,0
22.06.2017 13:00:00 27,2 21,9 22 12 31 17 SSW 1018,8 - 0,0
22.06.2017 12:00:00 26,9 21,2 18 10 23 12 SSW 1018,6 - 0,0
22.06.2017 11:00:00 25,9 20,2 13 7 19 11 SSW 1018,5 20 0,0
22.06.2017 10:00:00 25,9 19,5 3 2 9 5 ESE 1018,5 - 0,0
22.06.2017 09:00:00 24,6 19,2 9 5 17 9 ENE 1018,6 - 0,0
22.06.2017 08:00:00 22,6 19,0 11 6 19 11 ENE 1018,3 - 0,0
22.06.2017 07:00:00 20,4 17,6 15 8 21 11 E 1018,0 - 0,0
22.06.2017 06:00:00 21,2 19,5 5 3 10 5 ENE 1017,6 - 0,0
22.06.2017 05:00:00 20,8 20,0 6 3 13 7 W 1017,4 20 0,0
22.06.2017 04:00:00 21,6 20,9 10 5 18 10 W 1017,1 - 0,0
22.06.2017 03:00:00 21,8 21,0 13 7 22 12 W 1016,9 - 0,0
22.06.2017 02:00:00 21,9 20,7 16 9 25 14 WSW 1017,0 - 0,0
22.06.2017 01:00:00 22,1 20,4 16 9 27 15 W 1017,0 - 0,0
22.06.2017 00:00:00 22,4 20,1 21 12 29 15 W 1016,7 - 0,0
21.06.2017 23:00:00 22,6 19,6 19 11 27 14 W 1017,0 - 0,0
21.06.2017 22:00:00 22,8 19,0 17 9 27 15 W 1016,6 - 0,0
21.06.2017 21:00:00 23,6 19,1 17 9 24 13 W 1016,3 - 0,0
21.06.2017 20:00:00 25,3 19,9 10 6 21 11 WSW 1016,3 18 0,0
21.06.2017 19:00:00 26,0 20,3 13 7 25 14 SW 1016,1 - 0,0
21.06.2017 18:00:00 26,3 20,8 19 10 30 16 SSW 1016,1 - 0,0
21.06.2017 17:00:00 25,9 20,9 20 11 27 15 SSW 1016,3 - 0,0
21.06.2017 16:00:00 27,2 21,0 19 11 29 16 SSW 1016,4 - 0,0
21.06.2017 15:00:00 26,3 20,6 23 12 31 17 SSW 1016,4 - 0,0
21.06.2017 14:00:00 26,6 21,4 20 11 31 17 SSW 1017,1 20 0,0
21.06.2017 13:00:00 25,9 20,9 21 11 31 17 SSW 1017,6 - 0,0
21.06.2017 12:00:00 26,1 20,9 18 10 26 14 SSW 1017,6 - 0,0
21.06.2017 11:00:00 25,3 20,8 13 7 19 10 SSW 1017,2 35 0,0
21.06.2017 10:00:00 25,0 19,1 8 4 11 6 SSW 1017,1 - 0,0
21.06.2017 09:00:00 24,4 18,8 6 3 9 5 WNW 1017,2 - 0,0
21.06.2017 08:00:00 22,5 20,0 3 2 13 7 W 1016,9 15 0,2
21.06.2017 07:00:00 20,7 20,0 9 5 22 12 W 1016,7 - 0,0
21.06.2017 06:00:00 20,8 20,1 17 9 26 14 W 1016,6 - 0,0
21.06.2017 05:00:00 20,6 19,8 18 10 29 16 W 1016,2 20 0,0
21.06.2017 04:00:00 20,7 20,0 19 10 29 16 W 1016,4 - 0,0
21.06.2017 03:00:00 21,1 20,4 21 11 31 17 W 1017,0 - 0,0
21.06.2017 02:00:00 21,3 20,6 21 12 33 18 W 1017,2 - 0,0
21.06.2017 01:00:00 21,3 20,5 20 11 31 17 W 1017,5 - 0,0
21.06.2017 00:00:00 21,6 20,4 23 12 34 18 W 1017,7 - 0,0
20.06.2017 23:00:00 21,9 20,4 23 13 33 18 W 1017,6 - 0,0
20.06.2017 22:00:00 22,2 19,7 21 11 32 17 W 1017,5 - 0,0
20.06.2017 21:00:00 23,1 19,1 20 11 37 20 W 1017,5 - 0,0
20.06.2017 20:00:00 26,1 18,8 18 10 32 18 W 1017,4 - 0,0
20.06.2017 19:00:00 27,8 17,6 22 12 35 19 W 1017,3 - 0,0
20.06.2017 18:00:00 28,7 15,6 24 13 35 19 W 1017,6 - 0,0
20.06.2017 17:00:00 29,5 13,7 22 12 34 18 WSW 1018,0 30 0,0
20.06.2017 16:00:00 28,3 17,2 24 13 37 20 SW 1018,6 - 0,0
20.06.2017 15:00:00 27,8 17,3 22 12 35 19 SW 1019,1 - 0,0
20.06.2017 14:00:00 27,5 18,8 21 11 36 19 SW 1019,4 15 0,0
20.06.2017 13:00:00 26,7 20,5 23 13 36 20 SSW 1019,8 - 0,0
20.06.2017 12:00:00 25,8 20,4 22 12 32 17 SSW 1019,9 - 0,0
20.06.2017 11:00:00 25,6 19,0 18 10 23 12 SSW 1020,0 20 0,0
20.06.2017 10:00:00 25,0 19,4 11 6 17 9 SSW 1020,0 - 0,0
20.06.2017 09:00:00 24,4 17,1 7 4 19 10 WSW 1020,0 - 0,0
20.06.2017 08:00:00 21,9 15,5 10 6 14 7 W 1019,8 20 0,0
20.06.2017 07:00:00 20,6 16,8 5 3 8 4 WSW 1019,7 - 0,0
20.06.2017 06:00:00 20,8 15,1 5 3 9 5 SW 1019,6 - 0,0
20.06.2017 05:00:00 21,2 11,8 8 4 11 6 W 1019,7 15 0,0
20.06.2017 04:00:00 20,8 13,0 10 5 11 6 WNW 1019,8 - 0,0
20.06.2017 03:00:00 20,7 14,6 10 5 16 9 WNW 1020,1 - 0,0
20.06.2017 02:00:00 20,9 16,7 14 8 16 9 W 1020,4 - 0,0
20.06.2017 01:00:00 20,9 17,5 9 5 14 7 WNW 1020,6 - 0,0
20.06.2017 00:00:00 21,2 18,0 10 5 11 6 SSW 1020,6 - 0,0
19.06.2017 23:00:00 21,5 18,7 8 4 9 5 SSW 1020,4 - 0,0
19.06.2017 22:00:00 21,9 17,9 8 5 12 6 S 1020,1 - 0,0
19.06.2017 21:00:00 23,0 15,8 5 3 10 5 S 1019,8 - 0,0
19.06.2017 20:00:00 25,1 15,7 8 4 14 8 SSE 1019,9 40 0,0
19.06.2017 19:00:00 25,7 13,2 10 5 22 12 SE 1020,0 - 0,0

tt = Température de l'air
td = dewpoint
ff = Vitesse du vent
fx = gusts
dd = Direction du vent
ppp = reduced air pressure
vv = visibility
rr = Quantités de précipitations

stations d'obs. à proximité